Glasgow, MT

6:51 PM MDT on May 21, 2018 (GMT -0600)
Wokal-Glasgow International

Weather History for KGGW - October, 2011

Change the Weather History Date:

Monday, October 17, 2011

  Actual Average Record
Temperature  
Mean Temperature 41 °F 44 °F  
Max Temperature 57 °F 57 °F 86 °F (1927)
Min Temperature 25 °F 32 °F 11 °F (1922)
Degree Days  
Heating Degree Days 24 21  
Month to date heating degree days 191 293  
Since 1 July heating degree days 330 587  
Cooling Degree Days 0 0  
Month to date cooling degree days 16 0  
Year to date cooling degree days 558 532  
Moisture  
Dew Point 22 °F    
Average Humidity 53    
Maximum Humidity 81    
Minimum Humidity 24    
Precipitation  
Precipitation 0.00 in 0.03 in 0.79 in (1938)
Month to date precipitation 0.59 0.49  
Year to date precipitation 21.75 10.60  
Snow  
Snow 0.00 in 0.10 in 3.60 in (1932)
Month to date snowfall 0.0 0.6  
Since 1 July snowfall 0.0 0.8  
Since 1 September snowfall 0.0 0.8  
Snow Depth 0.00 in    
Sea Level Pressure  
Sea Level Pressure 30.21 in    
Wind  
Wind Speed 7 mph (NW)    
Max Wind Speed 17 mph    
Max Gust Speed 22 mph    
Visibility 10 miles    
Events      
T = Trace of Precipitation, MM = Missing Value Source: NWS Daily Summary

Daily Weather History Graph

Daily Weather History Graph

Search for Another Location

Airport or City:

Astronomy

Oct. 17, 2011 Rise Set
Actual Time 7:28 AM MDT 6:14 PM MDT
Civil Twilight 6:57 AM MDT 6:45 PM MDT
Nautical Twilight 6:20 AM MDT 7:21 PM MDT
Astronomical Twilight 5:44 AM MDT 7:57 PM MDT
Moon 9:38 PM MDT (10/17) 12:56 PM MDT (10/17)
Length of Visible Light 11h 48m
Length of Day
10h 45m
Waning Gibbous, 73% of the Moon is Illuminated
Oct 17
Waning Gibbous
Oct 19
Last Quarter
Oct 26
New
Nov 2
First Quarter
Nov 10
Full

Hourly Weather History & Observations

Time (MDT) Temp. Windchill Dew Point Humidity Pressure Visibility Wind Dir Wind Speed Gust Speed Precip Events Conditions
12:53 AM 32.0 °F 27.5 °F 21.0 °F 64% 30.11 in 10.0 mi North 4.6 mph - N/A   Clear
1:53 AM 28.4 °F 23.3 °F 21.2 °F 74% 30.07 in 10.0 mi NW 4.6 mph - N/A   Clear
2:53 AM 32.0 °F 25.6 °F 19.9 °F 61% 30.13 in 10.0 mi NW 6.9 mph - N/A   Clear
3:53 AM 30.2 °F 22.6 °F 21.2 °F 69% 30.09 in 10.0 mi NNW 8.1 mph - N/A   Clear
4:53 AM 28.0 °F 21.7 °F 21.9 °F 78% 30.16 in 10.0 mi WNW 5.8 mph - N/A   Clear
5:53 AM 28.9 °F 21.1 °F 21.9 °F 75% 30.18 in 10.0 mi NW 8.1 mph - N/A   Clear
6:53 AM 27.0 °F 19.5 °F 21.0 °F 78% 30.21 in 10.0 mi NW 6.9 mph - N/A   Clear
7:53 AM 27.0 °F 19.5 °F 21.9 °F 81% 30.23 in 10.0 mi West 6.9 mph - N/A   Clear
8:53 AM 30.9 °F 26.2 °F 23.0 °F 72% 30.24 in 10.0 mi WNW 4.6 mph - N/A   Clear
9:53 AM 36.0 °F 29.0 °F 25.0 °F 64% 30.25 in 10.0 mi WNW 9.2 mph - N/A   Clear
10:53 AM 43.0 °F 38.2 °F 25.0 °F 49% 30.25 in 10.0 mi WNW 8.1 mph - N/A   Clear
11:53 AM 48.0 °F - 24.1 °F 39% 30.26 in 10.0 mi WNW 11.5 mph - N/A   Clear
12:53 PM 52.0 °F - 21.9 °F 31% 30.25 in 10.0 mi WNW 10.4 mph - N/A   Clear
1:53 PM 55.0 °F - 19.9 °F 25% 30.23 in 10.0 mi WNW 13.8 mph - N/A   Clear
2:53 PM 55.0 °F - 21.0 °F 27% 30.22 in 10.0 mi NW 10.4 mph - N/A   Clear
3:53 PM 55.0 °F - 21.9 °F 28% 30.22 in 10.0 mi WNW 9.2 mph - N/A   Clear
4:53 PM 55.9 °F - 19.0 °F 24% 30.23 in 10.0 mi NW 10.4 mph - N/A   Clear
5:53 PM 53.1 °F - 19.9 °F 27% 30.23 in 10.0 mi West 5.8 mph - N/A   Clear
6:53 PM 48.9 °F - 21.9 °F 35% 30.25 in 10.0 mi West 5.8 mph - N/A   Partly Cloudy
7:53 PM 46.9 °F - 23.0 °F 39% 30.26 in 10.0 mi West 3.5 mph - N/A   Scattered Clouds
8:53 PM 45.0 °F - 24.1 °F 44% 30.26 in 10.0 mi Calm Calm - N/A   Scattered Clouds
9:53 PM 45.0 °F 43.5 °F 23.0 °F 42% 30.26 in 10.0 mi North 3.5 mph - N/A   Mostly Cloudy
10:53 PM 45.0 °F 42.6 °F 21.0 °F 39% 30.25 in 10.0 mi NNW 4.6 mph - N/A   Mostly Cloudy
11:53 PM 44.1 °F 41.5 °F 21.0 °F 40% 30.25 in 10.0 mi West 4.6 mph - N/A   Clear